Voltar ao catálogo

ATLAS 5 CENTAUR R/B

AtivoMEO
NORAD 41020·ROCKET BODY·🇺🇸 United States

Lançado Oct 31, 2015 de Cape Canaveral Space Force Station

Loading…

Próximas Passagens (próximas 24 horas)

TLE

AtualizadoSource: Space-Track

Época: Sep 12, 2026, 16:23 UTC

1 41020U 15062B   26255.68283435 -.00000070  00000-0  00000-0 0  9998
2 41020  57.3772  44.4691 0164583 338.3828  20.9233  1.90405951 75588

Acompanhe ATLAS 5 CENTAUR R/B em tempo real com AllMySat

Download on the App Store